Regional Weather Roundup
Issued by NWS

Home | Current Version | Previous Version | Graphics & Text | Print | Product List | Glossary On
Versions: 1 2 3 4 5 6 7 8 9 10 11 12 13 14 15 16 17 18 19 20 21 22 23 24 25 26 27 28 29 30 31 32 33 34 35 36 37 38 39 40 41 42 43 44 45 46 47 48 49 50
000
ASUS43 KOAX 300910
RWRNE

WEATHER ROUNDUP FOR NEBRASKA
NATIONAL WEATHER SERVICE OMAHA NE
400 AM CDT SUN AUG 30 2015

NOTES: SATELLITE DATA IS BEING USED TO AUGMENT CLOUD COVER ABOVE
       12000 FEET.
       "FAIR" INDICATES FEW OR NO CLOUDS BELOW 12,000 FEET WITH NO
       SIGNIFICANT WEATHER AND/OR OBSTRUCTIONS TO VISIBILITY.

  * THESE STATIONS DO NOT REPORT WEATHER SUCH AS RAIN...SNOW OR FOG.

NEZ001>004-019>022-054>056-301000-
NEBRASKA PANHANDLE

CITY           SKY/WX    TMP DP  RH WIND       PRES   REMARKS
SCOTTSBLUFF    PTCLDY    74  40  29 S18       30.00F
ALLIANCE       PTCLDY    60  44  55 S5        30.01S
CHADRON        CLEAR     73  42  32 SW13G23   29.91S
KIMBALL        PTCLDY    62  41  46 S9        30.06F
SIDNEY         PTCLDY    62  42  47 S12       30.06F
$$

NEZ057>060-069>072-079>082-301000-
SOUTHWEST NEBRASKA

CITY           SKY/WX    TMP DP  RH WIND       PRES   REMARKS
NORTH PLATTE   CLEAR     63  53  70 S8        30.03F
IMPERIAL       CLEAR     60  47  61 SW8       30.05S
LEXINGTON      CLEAR     61  59  91 SE5       30.04F
MCCOOK         CLEAR     64  51  62 SW3       30.04S
OGALLALA       CLEAR     61  49  64 W5        30.04S
$$

NEZ005>010-023>029-035>040-094-301000-
NORTH CENTRAL NEBRASKA

CITY           SKY/WX    TMP DP  RH WIND       PRES   REMARKS
VALENTINE      CLEAR     68  56  65 S17       29.95F
AINSWORTH      CLEAR     65  59  82 S10       29.98F
BROKEN BOW     CLEAR     63  58  83 S6        30.03S
O`NEILL        PTCLDY    63  62  96 S8        29.99F
ORD            CLEAR     57  56  96 E3        30.01S FOG
THEDFORD       CLEAR     65  57  73 S12       30.01F
$$

NEZ041-046>049-061>064-073>077-083>087-301000-
SOUTH CENTRAL NEBRASKA

CITY           SKY/WX    TMP DP  RH WIND       PRES   REMARKS
GRAND ISLAND   FOG       63  62  97 S10       30.04R VSB 3/4
AURORA         FOG       62  62 100 S8        30.03S VSB 1/2
HASTINGS       CLOUDY    62  61  96 SW8       30.04S FOG
HEBRON         FOG       56  55  94 CALM      30.04F VSB 1/4
HOLDREGE       CLEAR     60  59  95 SW3       30.04F
KEARNEY *      CLEAR     59  55  88 S6        30.04S
YORK           FOG       61  61 100 S8        30.04S VSB 1/2
$$

NEZ011>018-030>034-042>045-301000-
NORTHEAST NEBRASKA

CITY           SKY/WX    TMP DP  RH WIND       PRES   REMARKS
NORFOLK        FOG       62  62 100 S7        30.01S VSB 3/4
ALBION         CLOUDY    63  61  93 S3        30.02S FOG
BLAIR            N/A     59  57  94 S5        30.03S FOG
COLUMBUS *     CLOUDY   N/A N/A N/A S5        30.03S VSB 3/4
FREMONT        CLOUDY    64  61  91 S6        30.03S
TEKAMAH        CLOUDY    64  63  96 S6        30.02S
WAYNE          CLOUDY    62  61  97 S12       30.01S FOG
$$

NEZ050>053-065>068-078-088>093-301000-
SOUTHEAST NEBRASKA

CITY           SKY/WX    TMP DP  RH WIND       PRES   REMARKS
LINCOLN        CLOUDY    62  61  96 S5        30.04F FOG
OMAHA EPPLEY   CLEAR     64  62  93 S5        30.03S
BEATRICE       CLOUDY    61  61  99 SE6       30.04F FOG
FALLS CITY     CLOUDY    57  57 100 CALM      30.03S FOG
NEBRASKA CITY  FOG       59  58  99 W5        30.04S VSB 1/4
PLATTSMOUTH    CLEAR     59  58  96 SW5       30.04S FOG
$$

NEZ044-045-051>053-067-301000-
OMAHA AREA

CITY           SKY/WX    TMP DP  RH WIND       PRES   REMARKS
OMAHA EPPLEY   CLEAR     64  62  93 S5        30.03S
BLAIR            N/A     59  57  94 S5        30.03S FOG
FREMONT        CLOUDY    64  61  91 S6        30.03S
MILLARD        CLOUDY    62  61  95 SW6       30.03S FOG
OFFUTT AFB     FOG       57  57 100 S2        30.03S VSB 1/2
PLATTSMOUTH    CLEAR     59  58  96 SW5       30.04S FOG
WAHOO          CLOUDY    62  60  94 SW7       30.03S FOG
$$




USA.gov is the U.S. government's official web portal to all federal, state and local government web resources and services.